[[{"header":{"parameterUnit":"m.s-1","parameterCategory":1,"la1":30.2991,"la2":30.254,"lo1":-89.0895,"lo2":-89.0444,"dy":0.0017,"dx":0.0017,"nx":28,"ny":28,"refTime":"2024-09-28T21:00:00:Z","depth":0,"parameterNumber":2,"parameterNumberName":"U-component_of_WINDS"},"data":[0,0,0,0,0,0,0,0,0,0,0,0,0,0,0,0,0,0,0,0,0,0,0,0,0,0,0,0,0,0,0,0,0,0,0,0,0,0,0,0,0,0,0,0,0,0,0,0,0,0,0,0,0,0,0,0,0,0,1.6541,1.6542,0,1.6577,1.6577,1.6578,1.6552,1.6551,1.6549,1.6548,1.6588,1.659,1.6592,0,0,0,0,0,0,0,0,0,0,0,0,0,1.6455,1.6457,1.6541,1.6542,1.6542,1.6577,1.6577,1.6578,1.6552,1.655,1.6549,1.6548,1.6587,1.659,1.6592,0,0,0,0,0,0,0,0,0,0,0,0,0,1.6492,1.6457,1.6541,1.6533,1.6533,1.6577,1.6577,1.6578,1.6552,1.655,1.6549,1.6547,1.6586,1.659,1.6593,1.6647,0,0,1.6603,1.6604,0,0,0,0,0,0,0,0,1.649,1.6495,1.6534,1.6534,1.6534,1.6558,1.6561,1.6601,1.6553,1.6545,1.6548,1.6546,1.658,1.6583,1.6594,1.6649,1.6651,1.6603,1.6605,1.6606,1.6607,0,0,0,0,0,0,0,1.6487,1.6493,1.6556,1.6535,1.6535,1.6529,1.6533,1.6569,1.6572,1.6546,1.6544,1.6548,1.6579,1.6591,1.6595,1.6651,1.6603,1.6606,1.6608,1.6609,1.6755,1.6757,0,0,0,0,0,0,1.6485,1.6491,1.6554,1.6557,1.6507,1.6532,1.6536,1.6552,1.6571,1.6572,1.655,1.6547,1.6586,1.6591,1.6596,1.6662,1.6606,1.6609,1.6611,1.6753,1.6755,1.6757,0,0,0,0,0,0,1.6483,1.6491,1.6553,1.6524,1.6531,1.6536,1.6554,1.6554,1.6565,1.6574,1.6575,1.6561,1.6585,1.6591,1.6635,1.6663,1.6611,1.6613,1.6751,1.6754,1.6756,1.6794,0,0,0,0,0,0,1.6481,1.649,1.651,1.6524,1.6533,1.659,1.6556,1.6556,1.657,1.6567,1.6585,1.6586,1.6584,1.663,1.6638,1.6666,1.6616,1.6748,1.6752,1.6755,1.679,1.6798,1.6804,0,0,0,0,0,1.6478,1.652,1.6511,1.6519,1.6557,1.6592,1.6597,1.6593,1.6573,1.6593,1.6599,1.6586,1.6659,1.6635,1.6643,1.6673,1.6746,1.6751,1.6755,1.6787,1.6796,1.6804,0,0,0,0,0,0,1.6509,1.6521,1.6512,1.6559,1.6575,1.6587,1.6613,1.6602,1.6624,1.6621,1.6616,1.662,1.6666,1.6674,1.6647,1.6728,1.6699,1.6706,1.6721,1.673,1.6736,1.6734,1.6619,0,0,0,0,0,1.6522,1.6548,1.6557,1.6598,1.6606,1.6608,1.6623,1.6619,1.6635,1.6641,1.6651,1.6668,1.6695,1.6713,1.6738,1.6791,1.6796,1.6816,1.6823,1.6829,1.6835,1.6865,1.6875,1.6772,1.6772,1.6772,0,0,1.6548,1.6557,1.6574,1.6605,1.6616,1.6644,1.6614,1.6645,1.6666,1.6646,1.6688,1.6695,1.6714,1.6763,1.6786,1.6772,1.6864,1.6834,1.6839,1.6842,1.687,1.688,1.6889,1.6775,1.6774,1.6774,0,0,1.6609,1.6619,1.6654,1.6667,1.6684,1.6685,1.6694,1.6709,1.6713,1.6754,1.674,1.6766,1.6812,1.6827,1.684,1.6909,1.6898,1.6917,1.6954,1.6984,1.6992,1.6999,1.7025,1.7034,1.6923,1.6923,1.6923,0,1.664,1.6681,1.6674,1.6707,1.6721,1.6704,1.6741,1.6753,1.6779,1.679,1.6773,1.6832,1.6843,1.6896,1.6913,1.6924,1.6935,1.6915,1.6991,1.6998,1.7005,1.7029,1.7039,1.6925,1.6925,1.6925,1.6925,0,1.6718,1.6746,1.6773,1.6797,1.6815,1.6849,1.685,1.6869,1.6863,1.6867,1.691,1.6923,1.6952,1.6964,1.6959,1.7017,1.7007,1.6991,1.6963,1.7017,1.704,1.7049,1.6929,1.6928,1.6927,1.6927,0,0,1.68,1.6821,1.6831,1.6842,1.686,1.6883,1.6918,1.6944,1.6961,1.698,1.7009,1.7049,1.7035,1.705,1.7047,1.7073,1.7128,1.7054,1.7054,1.7068,1.7194,1.7206,1.7217,1.7121,1.7122,1.7124,1.7193,0,1.6863,1.6922,1.6918,1.6974,1.7001,1.6986,1.7017,1.7032,1.7037,1.7062,1.7067,1.7096,1.7074,1.7084,1.7109,1.7116,1.7153,1.7111,1.715,1.7151,1.7146,1.7229,1.7242,1.7306,1.7201,1.7203,1.7204,0,1.6945,1.6965,1.7024,1.7039,1.7051,1.7078,1.7103,1.7126,1.7144,1.7146,1.7164,1.7157,1.7193,1.7164,1.7215,1.7186,1.7202,1.7208,1.721,1.7214,1.7181,1.7236,1.7326,1.7336,1.7218,1.7217,1.7216,0,1.7,1.7042,1.7083,1.7093,1.7112,1.7132,1.7141,1.7157,1.7174,1.7196,1.7207,1.7234,1.7248,1.727,1.7271,1.7249,1.7323,1.7293,1.7327,1.7327,1.7343,1.7342,1.7438,1.7353,1.7352,1.7352,1.7352,0,1.7071,1.7108,1.7108,1.7133,1.7175,1.7171,1.7212,1.7219,1.7234,1.7261,1.725,1.7277,1.7276,1.7303,1.7304,1.7347,1.7354,1.7357,1.7357,1.7358,1.7358,1.7369,1.7365,1.7355,1.7354,1.7354,1.7353,0,1.714,1.7141,1.7185,1.7199,1.7204,1.7234,1.7247,1.7272,1.7275,1.7311,1.7319,1.7325,1.7357,1.736,1.7397,1.7398,1.745,1.7445,1.7443,1.7443,1.7476,1.7473,1.7583,1.7598,1.7502,1.7503,1.7504,0,1.7185,1.7213,1.723,1.7248,1.7258,1.7285,1.7302,1.73,1.7319,1.7342,1.7364,1.7395,1.7419,1.747,1.7479,1.7508,1.7504,1.754,1.7508,1.7509,1.7505,1.7504,1.7507,1.7547,1.7548,1.7549,1.7549,0,1.7266,1.7266,1.729,1.7315,1.7336,1.7356,1.7374,1.739,1.739,1.7412,1.7443,1.7462,1.7499,1.753,1.7559,1.7569,1.756,1.7559,1.7569,1.7571,1.7569,1.7571,1.7461,1.7557,1.7556,1.7556,1.7555,1.7555,1.7325,1.735,1.7366,1.7394,1.7408,1.7426,1.745,1.7457,1.7483,1.7513,1.751,1.7546,1.7565,1.7602,1.7615,1.7643,1.7631,1.7645,1.7648,1.7652,1.7655,1.7564,1.7649,1.7648,1.7648,1.7648,1.7648,0,1.7406,1.7416,1.7442,1.7468,1.7491,1.7479,1.75,1.752,1.755,1.7568,1.7592,1.763,1.766,1.7672,1.7701,1.7722,1.7719,1.773,1.7729,1.7732,1.7664,1.7653,1.7733,1.7733,1.7733,1.7733,1.7733,1.7733,1.7451,1.7492,1.7494,1.7543,1.7553,1.7586,1.7599,1.7616,1.7631,1.7673,1.7697,1.7704,1.772,1.7752,1.7779,1.7782,1.7794,1.7807,1.7809,1.7745,1.7737,1.7728,1.7718,1.781,1.781,1.7874,1.7875,1.7875]},{"header":{"parameterUnit":"m.s-1","parameterCategory":1,"la1":30.2991,"la2":30.254,"lo1":-89.0895,"lo2":-89.0444,"dy":0.0017,"dx":0.0017,"nx":28,"ny":28,"refTime":"2024-09-28T21:00:00:Z","depth":0,"parameterNumber":3,"parameterNumberName":"V-component_of_WINDS"},"data":[0,0,0,0,0,0,0,0,0,0,0,0,0,0,0,0,0,0,0,0,0,0,0,0,0,0,0,0,0,0,0,0,0,0,0,0,0,0,0,0,0,0,0,0,0,0,0,0,0,0,0,0,0,0,0,0,0,0,2.3723,2.3722,0,2.3697,2.3697,2.3697,2.3696,2.3696,2.3696,2.3697,2.3668,2.3667,2.3666,0,0,0,0,0,0,0,0,0,0,0,0,0,2.3765,2.3765,2.3723,2.3722,2.3722,2.3698,2.3697,2.3697,2.3696,2.3696,2.3696,2.3697,2.3668,2.3667,2.3665,0,0,0,0,0,0,0,0,0,0,0,0,0,2.3744,2.3764,2.3723,2.3719,2.3718,2.3698,2.3697,2.3697,2.3696,2.3696,2.3697,2.3697,2.3668,2.3667,2.3665,2.3646,0,0,2.366,2.366,0,0,0,0,0,0,0,0,2.3745,2.3743,2.3719,2.3719,2.3718,2.37,2.3702,2.368,2.3695,2.3704,2.3697,2.3697,2.3678,2.3676,2.367,2.3645,2.3644,2.366,2.3659,2.3659,2.3658,0,0,0,0,0,0,0,2.3747,2.3744,2.3713,2.3719,2.3718,2.3717,2.3714,2.3697,2.3689,2.3703,2.3703,2.37,2.3678,2.3671,2.3669,2.3643,2.366,2.3659,2.3658,2.3657,2.3599,2.3599,0,0,0,0,0,0,2.375,2.3745,2.3713,2.3712,2.3733,2.3715,2.3713,2.3705,2.3689,2.3687,2.37,2.37,2.3674,2.3671,2.3668,2.3643,2.3659,2.3657,2.3656,2.36,2.3599,2.3599,0,0,0,0,0,0,2.3751,2.3747,2.3714,2.3728,2.3724,2.3714,2.3706,2.3705,2.3698,2.3686,2.3684,2.3695,2.3674,2.367,2.3651,2.3642,2.3657,2.3655,2.3601,2.36,2.3599,2.3594,0,0,0,0,0,0,2.3752,2.3747,2.3741,2.3728,2.3723,2.37,2.3706,2.3704,2.3696,2.3696,2.3682,2.3679,2.3674,2.3654,2.365,2.364,2.3654,2.3601,2.36,2.3599,2.3595,2.3594,2.3592,0,0,0,0,0,2.3753,2.3741,2.3741,2.3737,2.3716,2.3699,2.3696,2.3691,2.3695,2.3688,2.368,2.368,2.3644,2.3652,2.3648,2.3637,2.3602,2.36,2.3599,2.3596,2.3594,2.3592,0,0,0,0,0,0,2.3752,2.3739,2.3739,2.3722,2.3712,2.3699,2.369,2.3689,2.3677,2.3677,2.3671,2.3667,2.3648,2.3641,2.365,2.3617,2.3623,2.3621,2.3622,2.362,2.3619,2.362,2.3653,0,0,0,0,0,2.375,2.3738,2.3727,2.3713,2.3708,2.37,2.3692,2.3689,2.3678,2.3674,2.3664,2.3652,2.3638,2.3629,2.3615,2.3594,2.359,2.3585,2.3583,2.3582,2.358,2.3566,2.3563,2.3594,2.3594,2.3594,0,0,2.3745,2.3736,2.3729,2.3713,2.3704,2.3691,2.3696,2.3683,2.3673,2.3671,2.3653,2.3645,2.3631,2.3611,2.3601,2.3604,2.357,2.358,2.3579,2.3578,2.3564,2.3561,2.3559,2.3593,2.3593,2.3594,0,0,2.3729,2.3722,2.3709,2.37,2.3688,2.3682,2.3679,2.3666,2.3661,2.3643,2.3641,2.3628,2.3605,2.3594,2.3586,2.3564,2.3563,2.356,2.3551,2.3537,2.3535,2.3533,2.3523,2.352,2.3558,2.3558,2.3558,0,2.3724,2.3706,2.3702,2.3688,2.368,2.3679,2.3664,2.3656,2.3639,2.3633,2.3636,2.3605,2.3596,2.3572,2.3567,2.3561,2.3555,2.3561,2.3536,2.3534,2.3531,2.3522,2.3519,2.3558,2.3558,2.3558,2.3558,0,2.3699,2.3686,2.3677,2.3662,2.3652,2.3638,2.3631,2.3622,2.3619,2.3612,2.3592,2.3581,2.3564,2.3558,2.3556,2.3533,2.3535,2.3538,2.3544,2.3528,2.3519,2.3516,2.3557,2.3557,2.3557,2.3557,0,0,2.3682,2.3664,2.366,2.3653,2.3638,2.3628,2.3613,2.3597,2.3588,2.3577,2.3563,2.3542,2.3543,2.3534,2.353,2.3518,2.3499,2.3521,2.3521,2.3516,2.3472,2.3469,2.3466,2.3499,2.3498,2.3498,2.3472,0,2.3663,2.3638,2.3633,2.3611,2.3598,2.3596,2.3582,2.3571,2.3564,2.3551,2.3542,2.3527,2.3531,2.3525,2.3514,2.3504,2.349,2.3506,2.3483,2.3483,2.3486,2.3461,2.3459,2.3436,2.3469,2.3469,2.3468,0,2.3639,2.3627,2.3603,2.3589,2.3583,2.3571,2.3556,2.3544,2.353,2.3526,2.3514,2.3511,2.3493,2.3501,2.3475,2.3486,2.3476,2.347,2.3469,2.3465,2.3474,2.3456,2.3429,2.3425,2.3463,2.3464,2.3464,0,2.3627,2.3605,2.3587,2.3581,2.3564,2.3556,2.3548,2.3535,2.3525,2.3511,2.3504,2.3488,2.3479,2.3465,2.3457,2.3463,2.3431,2.3438,2.3425,2.3425,2.3417,2.3418,2.3387,2.3413,2.3413,2.3414,2.3414,0,2.3606,2.3591,2.3581,2.357,2.3552,2.3547,2.3529,2.3521,2.3509,2.3495,2.3492,2.3479,2.3469,2.3454,2.3447,2.3425,2.3422,2.3416,2.3414,2.3416,2.3416,2.3408,2.3409,2.3413,2.3413,2.3413,2.3413,0,2.3589,2.3582,2.3563,2.3549,2.3545,2.3532,2.3519,2.3507,2.35,2.3482,2.3478,2.3466,2.3448,2.3438,2.3415,2.341,2.3385,2.3385,2.339,2.3389,2.3376,2.3377,2.3338,2.3332,2.3364,2.3363,2.3363,0,2.3576,2.3565,2.3549,2.354,2.3533,2.3518,2.3508,2.3501,2.3491,2.3473,2.3463,2.3445,2.343,2.34,2.3388,2.337,2.3368,2.3356,2.3365,2.3366,2.3366,2.3366,2.3364,2.3354,2.3353,2.3353,2.3353,0,2.3553,2.355,2.3536,2.3521,2.3509,2.3497,2.3484,2.3477,2.3467,2.3455,2.3437,2.3425,2.3401,2.3382,2.3363,2.3353,2.335,2.335,2.3346,2.3347,2.3349,2.3346,2.3384,2.3351,2.3351,2.3351,2.3351,2.3351,2.3536,2.3525,2.3512,2.3497,2.3487,2.3475,2.3463,2.3454,2.3439,2.342,2.3416,2.3396,2.338,2.3354,2.3344,2.3326,2.3329,2.3323,2.3321,2.332,2.3318,2.3353,2.3323,2.3323,2.3323,2.3323,2.3323,0,2.3511,2.3503,2.3489,2.3472,2.3459,2.3459,2.3445,2.3433,2.3416,2.3403,2.3388,2.3365,2.3346,2.3333,2.3313,2.3302,2.33,2.3296,2.3296,2.3294,2.3318,2.3323,2.3298,2.3298,2.3298,2.3298,2.3298,2.3298,2.3497,2.3478,2.3473,2.3448,2.3439,2.342,2.3412,2.34,2.3389,2.3364,2.3349,2.334,2.3326,2.3305,2.3287,2.3283,2.3275,2.3271,2.3267,2.329,2.3292,2.3295,2.3299,2.327,2.327,2.3244,2.3244,2.3244]}]]